Showing default

CBERS 4A, 44883

Orbit data source: Space-Track

CBERS 4A, 44883 is a CN and BR payload satellite in SSO that was launched on Fri, 20 Dec 2019 UTC via a CHANG ZHENG 4B launch vehicle from the Taiyaun Space Center, China (TSC). Payload-class satellites include a variety of spacecraft equipped with specific instruments for various scientific and technological missions. These include communications satellites like Starlink; space stations such as the ISS; scientific satellites like the Hubble; Earth observation satellites from companies like Planet Labs, Umbra, and HawkEye 360; GPS; miniature CubeSats for education and research; and military/defense satellites.

Loading next visibility...
Identifier
44883, 2019-093E
Orbit
SSO
Country
Flag of UnknownUnknown / CHBZ
Related business
Manufacturer
CAST/INPE
Mission
Operational Civil Imaging
Bus & Motor
ZY, AOCS 20N
Mass
1,980 kg wet, ~1,900 kg dry
Launch date (UTC)
2019-12-20 (6 years ago)
Launch vehicle
CHANG ZHENG 4B
Launch site
Taiyaun Space Center, China (TSC)
Object type
Payload
Rocket body
Debris
Shape & HBR
Box + 1 Pan, Unknown HBR
Radar Cross Section
22.196 m², Large (>1 m²)

Expand to show TLE details & history
Last TLE update: 7 hours ago

TLE from 7 hours ago
0 CBERS 4A
1 44883U 19093E   25311.30518628  .00001879  00000-0  24552-3 0  9990
2 44883  97.7788  20.3597 0002292 135.0963 225.0436 14.81605879318220
Epoch: 2025-11-07T07:19Z
TLE epoch observation values (Epoch: 2025-11-07T07:19:28.094Z)
Latitude
-0.00002°
Longitude
-136.25842°
Altitude
628.421 km
Speed
7.544 km/s
True Right ascension
01h 21m 26s
True Declination
0° 00' 00"
Sunlit
Object was in full shadow at epoch
Visualization orbit readout
Latitude
Unknown
Longitude
Unknown
Altitude
Unknown
Speed
Unknown
Apparent Right ascension
Unknown
Apparent Declination
Unknown
Sunlit
N/A
Visualization observer readout
Local Sidereal Time
10:07:25
Azimuth
Unknown
Elevation
Unknown
Doppler factor
Unknown
Orbital elements
Apogee altitude
622.897 km
Perigee altitude
619.689 km
Semi-major axis
6,999.43 km
Eccentricity
0.00023
Inclination
97.7788°
RAAN
20.3597°
Arg. of periapsis
135.0963°
True anomaly
225.02502°
Mean anomaly
225.0436°
Eccentric anomaly
225.03431°
Mean motion
3.70637 °/min
Orbital period
97.13 mins
BSTAR
0.00024552
Loading maneuver chart data...
Computing Atmospheric mass density...
Loading historical data...
Loading historical data...
Loading historical data...
Loading historical data...
Loading historical data...
Loading historical data...
Loading historical data...

Documentation

Showing up to 5 results
|